Weather History for Holdrege, NE

Change the Weather History Date:

Friday, February 7, 2014

  Actual Average Record
Temperature  
Mean Temperature 8 °F -  
Max Temperature 13 °F 36 °F 64 °F (1999)
Min Temperature 3 °F 13 °F -5 °F (1982)
Degree Days  
Heating Degree Days 57    
Moisture  
Dew Point 3 °F    
Average Humidity 79    
Maximum Humidity 86    
Minimum Humidity 75    
Precipitation  
Precipitation 0.00 in - - ()
Sea Level Pressure  
Sea Level Pressure 30.10 in    
Wind  
Wind Speed 9 mph (South)    
Max Wind Speed 13 mph    
Max Gust Speed 17 mph    
Visibility 9 miles    
Events Snow    
Averages and records for this station are not official NWS values.
T = Trace of Precipitation, MM = Missing Value Source: NWS Daily Summary

Daily Weather History Graph

Daily Weather History Graph

Search for Another Location

Airport:

Trip Planner

Search our weather history database for the weather conditions in past years. The results will help you decide how hot, cold, wet, or windy it might be!

Date:

Astronomy

Feb. 07, 2014 Rise Set
Actual Time 7:40 AM CST 6:03 PM CST
Civil Twilight 7:12 AM CST 6:31 PM CST
Nautical Twilight 6:39 AM CST 7:03 PM CST
Astronomical Twilight 6:07 AM CST 7:35 PM CST
Moon 12:15 PM CST (2/7) 1:58 AM CST (2/7)
Length of Visible Light 11h 19m
Length of Day
10h 22m
First Quarter, 59% of the Moon is Illuminated
Feb 7
First Quarter
Feb 14
Full
Feb 22
Last Quarter
Mar 1
New
Mar 8
First Quarter

Hourly Weather History & Observations

Time (CST) Temp. Windchill Dew Point Humidity Pressure Visibility Wind Dir Wind Speed Gust Speed Precip Events Conditions
12:15 AM 3.2 °F -7.8 °F -2.4 °F 78% 30.24 in 10.0 mi SSW 5.8 mph - N/A   Mostly Cloudy
12:35 AM 3.6 °F -7.3 °F -2.2 °F 77% 30.23 in 10.0 mi SSW 5.8 mph - N/A   Mostly Cloudy
12:55 AM 3.9 °F -8.2 °F -2.0 °F 76% 30.23 in 10.0 mi SSW 6.9 mph - N/A   Mostly Cloudy
1:15 AM 3.9 °F -9.4 °F -1.8 °F 77% 30.22 in 10.0 mi South 8.1 mph - N/A   Mostly Cloudy
1:35 AM 4.5 °F -8.7 °F -1.5 °F 76% 30.21 in 10.0 mi South 8.1 mph - N/A   Overcast
1:55 AM 4.8 °F -9.3 °F -1.3 °F 76% 30.20 in 10.0 mi South 9.2 mph - N/A   Overcast
2:15 AM 5.0 °F -9.1 °F -1.1 °F 76% 30.20 in 10.0 mi South 9.2 mph - N/A   Overcast
2:35 AM 5.4 °F -10.4 °F -0.8 °F 76% 30.20 in 10.0 mi South 11.5 mph - N/A   Overcast
2:55 AM 5.4 °F -9.6 °F -0.6 °F 76% 30.20 in 10.0 mi SSW 10.4 mph - N/A   Overcast
3:15 AM 5.5 °F -8.4 °F -0.4 °F 77% 30.19 in 10.0 mi South 9.2 mph - N/A   Overcast
3:35 AM 5.5 °F -8.4 °F -0.4 °F 77% 30.18 in 10.0 mi South 9.2 mph - N/A   Overcast
3:55 AM 5.5 °F -8.4 °F -0.4 °F 77% 30.17 in 10.0 mi South 9.2 mph - N/A   Overcast
4:15 AM 5.9 °F -8.9 °F 0.1 °F 77% 30.17 in 10.0 mi South 10.4 mph - N/A   Overcast
4:35 AM 5.9 °F -8.0 °F 0.3 °F 78% 30.17 in 10.0 mi South 9.2 mph - N/A   Overcast
4:55 AM 6.1 °F -7.8 °F 0.5 °F 78% 30.17 in 10.0 mi South 9.2 mph - N/A   Overcast
5:15 AM 6.1 °F -7.8 °F 0.5 °F 78% 30.17 in 10.0 mi South 9.2 mph - N/A   Overcast
5:35 AM 6.3 °F -5.4 °F 0.5 °F 77% 30.17 in 10.0 mi South 6.9 mph - N/A   Overcast
5:55 AM 6.1 °F -4.3 °F 0.5 °F 78% 30.16 in 10.0 mi South 5.8 mph - N/A   Overcast
6:15 AM 5.9 °F -7.0 °F 0.5 °F 78% 30.16 in 10.0 mi South 8.1 mph - N/A   Overcast
6:35 AM 5.7 °F -7.2 °F 0.1 °F 78% 30.16 in 10.0 mi South 8.1 mph - N/A   Overcast
6:55 AM 5.0 °F -6.9 °F -0.4 °F 78% 30.15 in 10.0 mi South 6.9 mph - N/A   Mostly Cloudy
7:15 AM 4.1 °F -6.7 °F -1.3 °F 78% 30.14 in 10.0 mi South 5.8 mph - N/A   Mostly Cloudy
7:35 AM 4.3 °F -9.0 °F -0.8 °F 80% 30.15 in 10.0 mi South 8.1 mph - N/A   Overcast
7:55 AM 4.8 °F -9.3 °F -0.4 °F 79% 30.15 in 10.0 mi South 9.2 mph - N/A   Overcast
8:15 AM 4.5 °F -8.7 °F -0.6 °F 80% 30.14 in 5.0 mi South 8.1 mph - N/A Snow Light Snow
8:35 AM 3.7 °F -8.4 °F -1.3 °F 80% 30.14 in 10.0 mi South 6.9 mph - N/A   Clear
8:55 AM 3.9 °F -10.4 °F -1.1 °F 80% 30.14 in 10.0 mi South 9.2 mph - N/A   Scattered Clouds
9:15 AM 5.5 °F -9.3 °F 0.5 °F 80% 30.14 in 7.0 mi South 10.4 mph - N/A   Overcast
9:35 AM 6.6 °F -8.8 °F 1.4 °F 79% 30.15 in 10.0 mi South 11.5 mph 17.3 mph N/A   Overcast
9:55 AM 7.2 °F -7.3 °F 1.8 °F 79% 30.14 in 7.0 mi South 10.4 mph - N/A   Overcast
10:15 AM 7.7 °F -8.2 °F 2.3 °F 79% 30.14 in 10.0 mi South 12.7 mph - N/A   Overcast
10:35 AM 8.6 °F -7.0 °F 2.8 °F 77% 30.14 in 7.0 mi South 12.7 mph - N/A Snow Light Snow
10:55 AM 8.6 °F -6.3 °F 3.0 °F 78% 30.13 in 7.0 mi South 11.5 mph - N/A Snow Light Snow
11:15 AM 9.5 °F -4.4 °F 3.7 °F 77% 30.13 in 7.0 mi South 10.4 mph - N/A Snow Light Snow
11:35 AM 10.0 °F -3.7 °F 4.1 °F 77% 30.13 in 10.0 mi South 10.4 mph - N/A Snow Light Snow
11:55 AM 10.6 °F -2.2 °F 4.6 °F 77% 30.13 in 5.0 mi South 9.2 mph - N/A Snow Light Snow
12:15 PM 10.9 °F -1.8 °F 4.8 °F 76% 30.12 in 3.0 mi South 9.2 mph - N/A Snow Light Snow
12:35 PM 11.7 °F -3.2 °F 5.0 °F 75% 30.10 in 7.0 mi South 12.7 mph - N/A Snow Light Snow
12:55 PM 11.3 °F -3.6 °F 4.8 °F 75% 30.09 in 7.0 mi South 12.7 mph - N/A Snow Light Snow
1:15 PM 11.5 °F -3.4 °F 4.8 °F 75% 30.08 in 7.0 mi South 12.7 mph 16.1 mph N/A Snow Light Snow
1:35 PM 11.3 °F -2.9 °F 5.2 °F 76% 30.07 in 7.0 mi South 11.5 mph - N/A Snow Light Snow
1:55 PM 11.7 °F -3.2 °F 5.4 °F 76% 30.05 in 7.0 mi South 12.7 mph 17.3 mph N/A Snow Light Snow
2:15 PM 11.3 °F -2.2 °F 5.2 °F 76% 30.05 in 5.0 mi South 10.4 mph - N/A Snow Light Snow
2:35 PM 11.7 °F -2.5 °F 5.5 °F 76% 30.04 in 7.0 mi South 11.5 mph - N/A Snow Light Snow
2:55 PM 11.3 °F -2.9 °F 5.4 °F 77% 30.02 in 5.0 mi South 11.5 mph - N/A Snow Light Snow
3:15 PM 11.3 °F -2.2 °F 5.5 °F 78% 30.02 in 5.0 mi South 10.4 mph - N/A Snow Light Snow
3:35 PM 11.3 °F -2.2 °F 5.7 °F 78% 30.02 in 4.0 mi South 10.4 mph - N/A Snow Light Snow
3:55 PM 11.5 °F -1.1 °F 5.9 °F 78% 30.02 in 5.0 mi South 9.2 mph - N/A Snow Light Snow
4:15 PM 11.3 °F -3.6 °F 5.9 °F 79% 30.00 in 4.0 mi SSE 12.7 mph - N/A Snow Light Snow
4:35 PM 11.3 °F -3.6 °F 5.9 °F 79% 30.00 in 5.0 mi South 12.7 mph - N/A Snow Light Snow
4:55 PM 11.3 °F -2.9 °F 6.1 °F 80% 30.01 in 7.0 mi South 11.5 mph - N/A Snow Light Snow
5:15 PM 11.3 °F -2.2 °F 5.9 °F 79% 30.01 in 7.0 mi South 10.4 mph - N/A Snow Light Snow
5:35 PM 11.3 °F -2.2 °F 5.9 °F 79% 30.02 in 7.0 mi South 10.4 mph - N/A Snow Light Snow
5:55 PM 11.3 °F -0.4 °F 6.3 °F 80% 30.02 in 5.0 mi South 8.1 mph - N/A Snow Light Snow
6:15 PM 11.3 °F -1.3 °F 6.3 °F 80% 30.04 in 10.0 mi South 9.2 mph - N/A   Overcast
6:35 PM 11.3 °F -1.3 °F 5.9 °F 79% 30.03 in 10.0 mi South 9.2 mph - N/A   Overcast
6:55 PM 11.3 °F -1.3 °F 6.3 °F 80% 30.03 in 10.0 mi South 9.2 mph - N/A   Overcast
7:15 PM 11.7 °F -1.7 °F 6.6 °F 80% 30.04 in 10.0 mi SSW 10.4 mph - N/A   Overcast
7:35 PM 11.8 °F -0.7 °F 6.8 °F 80% 30.03 in 10.0 mi South 9.2 mph - N/A   Overcast
7:55 PM 11.8 °F -0.7 °F 6.8 °F 80% 30.01 in 10.0 mi South 9.2 mph - N/A   Overcast
8:15 PM 11.8 °F -0.7 °F 7.0 °F 81% 30.00 in 10.0 mi South 9.2 mph - N/A Snow Light Snow
8:35 PM 12.0 °F -1.3 °F 7.5 °F 82% 30.00 in 10.0 mi South 10.4 mph - N/A   Overcast
8:55 PM 12.2 °F -0.2 °F 7.7 °F 82% 30.01 in 10.0 mi South 9.2 mph - N/A   Overcast
9:15 PM 12.6 °F 0.2 °F 8.2 °F 83% 30.02 in 10.0 mi South 9.2 mph - N/A   Overcast
9:35 PM 12.7 °F 0.4 °F 8.4 °F 83% 30.00 in 10.0 mi South 9.2 mph - N/A Snow Light Snow
9:55 PM 12.9 °F -0.2 °F 8.8 °F 84% 29.99 in 10.0 mi South 10.4 mph - N/A   Overcast
10:15 PM 13.1 °F 0.9 °F 9.1 °F 84% 29.99 in 10.0 mi South 9.2 mph - N/A   Overcast
10:35 PM 13.1 °F 0.1 °F 9.5 °F 86% 29.99 in 10.0 mi South 10.4 mph - N/A   Overcast
10:55 PM 13.1 °F 0.9 °F 9.5 °F 86% 29.98 in 10.0 mi South 9.2 mph - N/A   Overcast
11:15 PM 13.5 °F 1.3 °F 9.9 °F 86% 29.99 in 10.0 mi South 9.2 mph - N/A Snow Light Snow
11:35 PM 13.5 °F -0.2 °F 10.0 °F 86% 29.97 in 10.0 mi South 11.5 mph - N/A   Overcast
11:55 PM 13.5 °F 0.5 °F 10.0 °F 86% 29.95 in 10.0 mi South 10.4 mph - N/A   Overcast